This is the latest recevied weather packets stored in our database for station/object IZ2OSD. If no packets are shown the sender has not sent any weather packets the latest 10 day(s).
| Time | Temp. | Humidity | Pressure | Rain* | Wind** | Luminosity | Snow |
|---|---|---|---|---|---|---|---|
| 1777629292 | 16.67° C | 40% | 1027 hPa | 0 mm | - | - | - |
| 1777628647 | 16.11° C | 40% | 1026.8 hPa | 0 mm | - | - | - |
| 1777626227 | 15° C | 44% | 1027 hPa | 0 mm | - | - | - |
| 1777621990 | 14.44° C | 42% | 1026.7 hPa | 0 mm | - | - | - |
| 1777618966 | 13.89° C | 45% | 1026.4 hPa | 0 mm | - | - | - |
| 1777610485 | 11.11° C | 55% | 1025.3 hPa | 0 mm | - | - | - |
| 1777609875 | 11.11° C | 56% | 1025.3 hPa | 0 mm | - | - | - |
| 1777606849 | 10.56° C | 56% | 1024.9 hPa | 0 mm | - | - | - |
| 1777605640 | 10.56° C | 56% | 1024.8 hPa | 0 mm | - | - | - |
| 1777605037 | 10.56° C | 54% | 1024.8 hPa | 0 mm | - | - | - |
| 1777600808 | 11.11° C | 54% | 1024.9 hPa | 0 mm | - | - | - |
| 1777598079 | 11.67° C | 55% | 1024.5 hPa | 0 mm | - | - | - |
| 1777595665 | 11.67° C | 58% | 1024.7 hPa | 0 mm | - | - | - |
| 1777592030 | 12.22° C | 57% | 1024.5 hPa | 0 mm | - | - | - |
| 1777591427 | 12.22° C | 58% | 1024.4 hPa | 0 mm | - | - | - |
| 1777590818 | 12.22° C | 58% | 1024.2 hPa | 0 mm | - | - | - |
| 1777582336 | 14.44° C | 59% | 1023.5 hPa | 0 mm | - | - | - |
| 1777581127 | 15° C | 61% | 1023.1 hPa | 0 mm | - | - | - |
| 1777578707 | 15° C | 58% | 1023 hPa | 0 mm | - | - | - |
| 1777575683 | 15.56° C | 55% | 1022.2 hPa | 0 mm | - | - | - |
| 1777575075 | 16.11° C | 55% | 1021.8 hPa | 0 mm | - | - | - |
| 1777574470 | 16.67° C | 53% | 1021.8 hPa | 0 mm | - | - | - |
| 1777573866 | 16.67° C | 52% | 1021.8 hPa | 0 mm | - | - | - |
| 1777573255 | 16.67° C | 51% | 1021.7 hPa | 0 mm | - | - | - |
| 1777569623 | 17.78° C | 47% | 1021.2 hPa | 0 mm | - | - | - |
* Rain latest hour (hover to see other rain measurements)
** Current wind speed in m/s (hover to see current wind gust speed)